Terminal Aerodrome Forecast
Issued by NWS

Home | Current Version | Previous Version | Text Only | Print | Product List | Glossary On
Versions: 1 2 3 4 5 6 7 8 9 10 11 12 13
000
FTUS42 TJSJ 300500 RRA
TAFISX
TAF
TISX 300549Z 3006/3106 07006KT P6SM VCSH SCT030 SCT060
     FM301300 12009KT P6SM FEW030
     FM302300 08006KT P6SM FEW025
      AMD NOT SKED=

USA.gov is the U.S. government's official web portal to all federal, state and local government web resources and services.